Weather Roundup
Issued by NWS Springfield, MO

Home | Current Version | Previous Version | Text Only | Print | Product List | Glossary On
Versions: 1 2 3 4 5 6 7 8 9 10 11 12 13 14 15 16 17 18 19 20 21 22 23 24 25 26 27 28 29 30 31 32 33 34 35 36 37 38 39 40 41 42 43 44 45 46 47 48 49 50
000
NZUS99 KSGF 271407
HRRSGF

HOURLY WEATHER
NATIONAL WEATHER SERVICE SPRINGFIELD MO
900 AM CDT THU JUL 27 2017

......SGF CWA......

CITY           SKY/WX    TMP DP  RH WIND       PRES   REMARKS
SPRINGFIELD    HVY RAIN  73  73 100 W3        30.06R FOG
JOPLIN         CLOUDY    77  75  93 CALM      30.02R
WEST PLAINS    LGT RAIN  75  72  90 W5        30.06R FOG
ROLLA          LGT RAIN  72  72 100 SW8       30.00F FOG
OSAGE BEACH    RAIN      73  72  96 SW5       29.99R FOG
BRANSON        LGT RAIN  75  72  88 CALM      30.05R

......SURROUNDING SGF CWA......

CITY           SKY/WX    TMP DP  RH WIND       PRES   REMARKS
CHANUTE        CLOUDY    79  74  84 CALM      29.99R
PARSONS        CLOUDY    77  73  87 S5        29.98R
COFFEYVILLE    CLOUDY    79  74  84 S9        29.97R
EMPORIA        CLOUDY    75  73  93 NE10      29.99R
GROVE OK       HVY RAIN  77  75  94 CALM      30.02R
ROGERS AR      CLOUDY    79  71  76 S7        30.04S
SILOAM SPRINGS CLOUDY    79  70  73 S5        30.03R
HARRISON AR    LGT RAIN  78  72  81 NW3       30.06R
NEAR YELLVILLE CLOUDY    77  66  69 CALM      30.01R

......KANSAS AND MISSOURI......

CITY           SKY/WX    TMP DP  RH WIND       PRES   REMARKS
KANSAS CTY INT DRIZZLE   76  74  93 NE9       29.99R
DOWNTOWN KC    CLOUDY   N/A N/A N/A CALM      29.97R
COLUMBIA       LGT RAIN  74  73  97 CALM      29.98R FOG
SEDALIA        CLOUDY    77  76  96 SW9       29.98S
ST JOSEPH      CLOUDY    75  73  93 NE10      29.99R
ST LOUIS       LGT RAIN  78  74  87 W5        29.98S
SPIRIT OF STL  LGT RAIN  77  77 100 S3        29.96S
KIRKSVILLE     CLOUDY    76  73  91 N7        29.98S
WICHITA        CLOUDY    78  75  90 NW6       29.97R
TOPEKA         CLOUDY    76  75  97 N8        30.00R
OLATHE         CLOUDY    74  74 100 CALM      29.99R

......TENNESSEE......

CITY           SKY/WX    TMP DP  RH WIND       PRES   REMARKS
MEMPHIS        PTSUNNY   86  76  71 SW10      30.03S HX  96
NASHVILLE      PTSUNNY   85  73  67 SW5       30.04S HX  91

......ARKANSAS.......

CITY           SKY/WX    TMP DP  RH WIND       PRES   REMARKS
FAYETTEVILLE   CLOUDY    79  74  84 S5        30.03S
FT SMITH       CLOUDY    82  75  79 CALM      30.00R
LITTLE ROCK    CLOUDY    83  76  79 SW7       30.02R HX  91

......OKLAHOMA.......

CITY           SKY/WX    TMP DP  RH WIND       PRES   REMARKS
TULSA          RAIN      78  76  93 SE5       29.97S FOG
PONCA CITY     CLOUDY    79  70  74 S7        29.95R
MCALESTER      MOSUNNY   84  72  67 SW13      30.01S
OKLAHOMA CITY  CLOUDY    82  66  58 S14       29.98S

......IOWA............

CITY           SKY/WX    TMP DP  RH WIND       PRES   REMARKS
DES MOINES     MOSUNNY   76  68  76 N12       30.01R
QUAD CITIES    CLOUDY    74  69  85 NE9       29.97R

......ILLINOIS........

CITY           SKY/WX    TMP DP  RH WIND       PRES   REMARKS
QUINCY         LGT RAIN  75  74  96 NE8       29.94S FOG
CHICAGO        PTSUNNY   77  68  73 NE13      29.94R




USA.gov is the U.S. government's official web portal to all federal, state and local government web resources and services.